Weather History for Kingston / Norman Manley, Jamaica

Change the Weather History Date:

Saturday, September 21, 2013

  Actual Average Record
Temperature  
Mean Temperature 85 °F -  
Max Temperature 89 °F 87 °F - ()
Min Temperature 81 °F 78 °F - ()
Cooling Degree Days 20    
Growing Degree Days 35 (Base 50)    
Moisture  
Dew Point 76 °F    
Average Humidity 74    
Maximum Humidity 84    
Minimum Humidity 60    
Precipitation  
Precipitation 0.00 in - - ()
Sea Level Pressure  
Sea Level Pressure 29.83 in    
Wind  
Wind Speed 7 mph ()    
Max Wind Speed 28 mph    
Max Gust Speed -    
Visibility 7.5 miles    
Events Rain , Thunderstorm    
T = Trace of Precipitation, MM = Missing Value Source: Averaged Metar Reports

Daily Weather History Graph

Daily Weather History Graph

Search for Another Location

Airport:

Trip Planner

Search our weather history database for the weather conditions in past years. The results will help you decide how hot, cold, wet, or windy it might be!

Date:

Astronomy

Sep. 21, 2013 Rise Set
Actual Time 5:55 AM EST 6:03 PM EST
Civil Twilight 5:34 AM EST 6:25 PM EST
Nautical Twilight 5:08 AM EST 6:50 PM EST
Astronomical Twilight 4:43 AM EST 7:16 PM EST
Moon 7:41 PM EST (9/21) 7:47 AM EST (9/21)
Length of Visible Light 12h 51m
Length of Day
12h 07m
Waning Gibbous, 94% of the Moon is Illuminated
Sep 21
Waning Gibbous
Sep 26
Last Quarter
Oct 4
New
Oct 11
First Quarter
Oct 18
Full

Hourly Weather History & Observations

Time (EST) Temp. Heat Index Dew Point Humidity Pressure Visibility Wind Dir Wind Speed Gust Speed Precip Events Conditions
12:00 AM 82.4 °F 88.2 °F 73.4 °F 74% 29.86 in 6.2 mi North 3.5 mph - N/A   Mostly Cloudy
1:00 AM 82 °F - 78 °F 83% 29.85 in 12 mi NW 3.5 mph - -   Haze
1:00 AM 82.4 °F 90.9 °F 77.0 °F 84% 29.83 in 6.2 mi NW 2.3 mph - N/A   Partly Cloudy
2:00 AM 80.6 °F 86.2 °F 75.2 °F 84% 29.83 in 6.2 mi WNW 8.1 mph - N/A   Partly Cloudy
3:00 AM 80.6 °F 86.2 °F 75.2 °F 84% 29.83 in 6.2 mi North 6.9 mph - N/A   Partly Cloudy
4:00 AM 82 °F - 74 °F 72% 29.82 in 12 mi North 4.6 mph - -   Haze
4:00 AM 82.4 °F 89.5 °F 75.2 °F 79% 29.80 in 6.2 mi North 4.6 mph - N/A   Partly Cloudy
5:00 AM 82.4 °F 88.2 °F 73.4 °F 74% 29.83 in 6.2 mi NNW 4.6 mph - N/A   Scattered Clouds
6:00 AM 82.4 °F 88.2 °F 73.4 °F 74% 29.83 in 6.2 mi NNW 6.9 mph - N/A   Mostly Cloudy
7:00 AM 83 °F - 77 °F 77% 29.86 in 12 mi NNW 6.9 mph - -   Haze
7:00 AM 82.4 °F 90.9 °F 77.0 °F 84% 29.86 in 6.2 mi NNW 6.9 mph - N/A   Mostly Cloudy
8:00 AM 84.2 °F 90.9 °F 73.4 °F 70% 29.86 in 6.2 mi NNW 2.3 mph - N/A   Mostly Cloudy
9:00 AM 84.2 °F 92.3 °F 75.2 °F 74% 29.86 in 6.2 mi NNW 4.6 mph - N/A   Mostly Cloudy
10:00 AM 87 °F - 75 °F 60% 29.88 in 12 mi South 5.8 mph - -   Haze
10:00 AM 87.8 °F 97.6 °F 75.2 °F 66% 29.86 in 6.2 mi South 5.8 mph - N/A   Mostly Cloudy
11:00 AM 86.0 °F 96.9 °F 77.0 °F 74% 29.86 in 6.2 mi South 6.9 mph - N/A   Mostly Cloudy
12:00 PM 87.8 °F 99.7 °F 77.0 °F 70% 29.83 in 6.2 mi SSE 10.4 mph - N/A   Mostly Cloudy
1:00 PM 89 °F - 79 °F 67% 29.84 in 12 mi SSE 10.4 mph - -   Partly Cloudy
1:00 PM 89.6 °F 104.7 °F 78.8 °F 70% 29.83 in 6.2 mi SSE 10.4 mph - N/A   Mostly Cloudy
2:00 PM 87.8 °F 97.6 °F 75.2 °F 66% 29.86 in 6.2 mi SE 11.5 mph - N/A Thunderstorm Thunderstorm
3:00 PM 89.6 °F 104.7 °F 78.8 °F 70% 29.80 in 6.2 mi SE 27.6 mph - N/A Thunderstorm Thunderstorm
3:27 PM 87.8 °F 99.7 °F 77.0 °F 70% 29.80 in 6.2 mi SE 9.2 mph - N/A Rain Light Rain Showers
4:00 PM 87 °F - 76 °F 62% 29.78 in 9 mi SSE 11.5 mph - - Thunderstorm Light Thunderstorm
4:00 PM 86.0 °F 95.1 °F 75.2 °F 70% 29.77 in 6.2 mi SSE 11.5 mph - N/A   Mostly Cloudy
4:30 PM 87.8 °F 99.7 °F 77.0 °F 70% 29.83 in 6.2 mi SE 21.9 mph - N/A   Partly Cloudy
5:00 PM 86.0 °F 96.9 °F 77.0 °F 74% 29.77 in 6.2 mi SSE 12.7 mph - N/A   Mostly Cloudy
5:27 PM 87.8 °F 99.7 °F 77.0 °F 70% 29.80 in 6.2 mi SE 9.2 mph - N/A Rain Light Rain Showers
6:00 PM 84.2 °F 94.1 °F 77.0 °F 79% 29.77 in 6.2 mi SE 13.8 mph - N/A   Mostly Cloudy
7:00 PM 85 °F - 80 °F 79% 29.78 in 14 mi SE 11.5 mph - -   Haze
7:00 PM 86.0 °F 99.3 °F 78.8 °F 79% 29.77 in 6.2 mi SE 11.5 mph - N/A   Mostly Cloudy
8:00 PM 84.2 °F 94.1 °F 77.0 °F 79% 29.80 in 6.2 mi SE 9.2 mph - N/A   Mostly Cloudy
9:00 PM 84.2 °F 94.1 °F 77.0 °F 79% - 6.2 mi NNE 6.9 mph - N/A Thunderstorm Mostly Cloudy
10:00 PM 83 °F - 76 °F 74% 29.85 in 12 mi NNE 5.8 mph - -   Partly Cloudy
10:00 PM 82.4 °F 90.9 °F 77.0 °F 84% - 6.2 mi NNE 5.8 mph - N/A Thunderstorm Mostly Cloudy
11:00 PM 84.2 °F 92.3 °F 75.2 °F 74% 29.83 in 6.2 mi NNW 3.5 mph - N/A Thunderstorm Partly Cloudy